,,Stat6,,Stat2,,Stat8,,Stat9,,Stat10,,Wind1,,Wind1,
time,status,PA1M_AVG,status,PR1M_SUM,status,RH1M_AVG,status,SR1M_AVG,status,TA1M_AVG,status,W1dAve1m,status,W1sAve1m,
2005-07-25, 00:00:00,VALID,917.521,VALID,0,VALID,100,VALID,0.0169808,VALID,20.4907,VALID,10,VALID,1.6526,
2005-07-25, 00:01:00,VALID,917.519,VALID,0,VALID,100,VALID,0,VALID,20.4873,VALID,14,VALID,1.52834,
2005-07-25, 00:02:00,VALID,917.508,VALID,0,VALID,100,VALID,0,VALID,20.4942,VALID,7,VALID,1.44093,
2005-07-25, 00:03:00,VALID,917.502,VALID,0,VALID,100,VALID,0,VALID,20.4811,VALID,11,VALID,1.40588,
2005-07-25, 00:04:00,VALID,917.504,VALID,0,VALID,100,VALID,0,VALID,20.4905,VALID,13,VALID,1.29427,
2005-07-25, 00:05:00,VALID,917.503,VALID,0,VALID,100,VALID,0,VALID,20.4975,VALID,13,VALID,1.41273,
2005-07-25, 00:06:00,VALID,917.502,VALID,0,VALID,100,VALID,0,VALID,20.4805,VALID,15,VALID,1.61757,
2005-07-25, 00:07:00,VALID,917.503,VALID,0,VALID,100,VALID,0,VALID,20.4843,VALID,9,VALID,1.85511,
2005-07-25, 00:08:00,VALID,917.524,VALID,0,VALID,100,VALID,0,VALID,20.4848,VALID,21,VALID,1.74981,
2005-07-25, 00:09:00,VALID,917.54,VALID,0,VALID,100,VALID,-0.0169808,VALID,20.4612,VALID,13,VALID,1.58033,
2005-07-25, 00:10:00,VALID,917.558,VALID,0,VALID,100,VALID,0,VALID,20.4808,VALID,7,VALID,1.58794,
2005-07-25, 00:11:00,VALID,917.558,VALID,0,VALID,100,VALID,0,VALID,20.4811,VALID,3,VALID,1.72994,
2005-07-25, 00:12:00,VALID,917.575,VALID,0,VALID,100,VALID,-0.0169808,VALID,20.4813,VALID,351,VALID,1.05052,
2005-07-25, 00:13:00,VALID,917.577,VALID,0,VALID,100,VALID,-0.0679233,VALID,20.4918,VALID,357,VALID,0.820313,
2005-07-25, 00:14:00,VALID,917.579,VALID,0,VALID,100,VALID,-0.118866,VALID,20.4794,VALID,8,VALID,1.13437,
2005-07-25, 00:15:00,VALID,917.573,VALID,0,VALID,100,VALID,-0.118866,VALID,20.467,VALID,13,VALID,1.24691,
2005-07-25, 00:16:00,VALID,917.575,VALID,0,VALID,100,VALID,-0.101885,VALID,20.4699,VALID,6,VALID,0.814062,
2005-07-25, 00:17:00,VALID,917.571,VALID,0,VALID,100,VALID,-0.0849042,VALID,20.4632,VALID,4,VALID,1.04241,
2005-07-25, 00:18:00,VALID,917.592,VALID,0,VALID,100,VALID,-0.0849042,VALID,20.4697,VALID,2,VALID,0.814596,
2005-07-25, 00:19:00,VALID,917.606,VALID,0,VALID,100,VALID,-0.101885,VALID,20.4635,VALID,349,VALID,1.16624,
2005-07-25, 00:20:00,VALID,917.592,VALID,0,VALID,100,VALID,-0.101885,VALID,20.4468,VALID,334,VALID,1.21075,
2005-07-25, 00:21:00,VALID,917.588,VALID,0,VALID,100,VALID,-0.101885,VALID,20.4471,VALID,343,VALID,1.46548,
2005-07-25, 00:22:00,VALID,917.58,VALID,0,VALID,100,VALID,-0.101885,VALID,20.4635,VALID,13,VALID,1.09566,
2005-07-25, 00:23:00,VALID,917.554,VALID,0,VALID,100,VALID,-0.101885,VALID,20.4664,VALID,17,VALID,1.12576,
2005-07-25, 00:24:00,VALID,917.552,VALID,0,VALID,100,VALID,-0.0849042,VALID,20.4597,VALID,16,VALID,1.04688,
2005-07-25, 00:25:00,VALID,917.541,VALID,0,VALID,100,VALID,-0.0849042,VALID,20.453,VALID,9,VALID,1.26385,
2005-07-25, 00:26:00,VALID,917.515,VALID,0,VALID,100,VALID,-0.0849042,VALID,20.4503,VALID,14,VALID,1.29379,
2005-07-25, 00:27:00,VALID,917.497,VALID,0,VALID,99.998,VALID,-0.118866,VALID,20.4468,VALID,25,VALID,1.44495,
2005-07-25, 00:28:00,VALID,917.485,VALID,0,VALID,99.9501,VALID,-0.0339617,VALID,20.4751,VALID,11,VALID,1.02078,
2005-07-25, 00:29:00,VALID,917.464,VALID,0,VALID,99.7358,VALID,0,VALID,20.4716,VALID,17,VALID,1.32129,
2005-07-25, 00:30:00,VALID,917.466,VALID,0,VALID,99.5692,VALID,-0.0169808,VALID,20.4681,VALID,11,VALID,1.55469,
2005-07-25, 00:31:00,VALID,917.448,VALID,0,VALID,99.4535,VALID,0,VALID,20.4848,VALID,11,VALID,1.63826,
2005-07-25, 00:32:00,VALID,917.447,VALID,0,VALID,99.3619,VALID,-0.0169808,VALID,20.4878,VALID,16,VALID,1.51054,
2005-07-25, 00:33:00,VALID,917.44,VALID,0,VALID,99.3276,VALID,0,VALID,20.494,VALID,1,VALID,1.0718,
2005-07-25, 00:34:00,VALID,917.424,VALID,0,VALID,99.208,VALID,0.0169808,VALID,20.4907,VALID,2,VALID,1.11235,
2005-07-25, 00:35:00,VALID,917.42,VALID,0,VALID,99.1737,VALID,-0.0169808,VALID,20.4878,VALID,10,VALID,0.927871,
2005-07-25, 00:36:00,VALID,917.414,VALID,0,VALID,99.0822,VALID,0.0169808,VALID,20.488,VALID,4,VALID,1.01632,
2005-07-25, 00:37:00,VALID,917.41,VALID,0,VALID,99.0287,VALID,0,VALID,20.4945,VALID,4,VALID,0.888765,
2005-07-25, 00:38:00,VALID,917.398,VALID,0,VALID,98.9868,VALID,0.0169808,VALID,20.4808,VALID,2,VALID,0.77934,
2005-07-25, 00:39:00,VALID,917.374,VALID,0,VALID,98.9003,VALID,0.0169808,VALID,20.4714,VALID,350,VALID,0.792302,
2005-07-25, 00:40:00,VALID,917.356,VALID,0,VALID,98.8863,VALID,0.0169808,VALID,20.4816,VALID,12,VALID,0.906068,
2005-07-25, 00:41:00,VALID,917.322,VALID,0,VALID,98.8889,VALID,0,VALID,20.4649,VALID,12,VALID,1.13972,
2005-07-25, 00:42:00,VALID,917.308,VALID,0,VALID,98.6409,VALID,-0.0169808,VALID,20.4875,VALID,22,VALID,0.936592,
2005-07-25, 00:43:00,VALID,917.298,VALID,0,VALID,98.5468,VALID,-0.0509425,VALID,20.5144,VALID,24,VALID,0.511186,
2005-07-25, 00:44:00,VALID,917.287,VALID,0,VALID,98.4629,VALID,-0.0679233,VALID,20.5243,VALID,13,VALID,0.407158,
2005-07-25, 00:45:00,VALID,917.283,VALID,0,VALID,98.2874,VALID,-0.0339617,VALID,20.5146,VALID,358,VALID,0.48609,
2005-07-25, 00:46:00,VALID,917.284,VALID,0,VALID,98.1793,VALID,-0.0849042,VALID,20.5017,VALID,357,VALID,0.228723,
2005-07-25, 00:47:00,VALID,917.279,VALID,0,VALID,98.1742,VALID,-0.0679233,VALID,20.5015,VALID,357,VALID,0.463118,
2005-07-25, 00:48:00,VALID,917.249,VALID,0,VALID,98.2836,VALID,-0.101885,VALID,20.4955,VALID,357,VALID,0.314583,
2005-07-25, 00:49:00,VALID,917.239,VALID,0,VALID,98.4425,VALID,-0.0679233,VALID,20.4923,VALID,359,VALID,0.591025,
2005-07-25, 00:50:01,VALID,917.242,VALID,0,VALID,98.5252,VALID,-0.0849042,VALID,20.4856,VALID,2,VALID,0.638081,
2005-07-25, 00:51:00,VALID,917.242,VALID,0,VALID,98.4069,VALID,-0.0849042,VALID,20.4727,VALID,346,VALID,0.904492,
2005-07-25, 00:52:01,VALID,917.247,VALID,0,VALID,98.3459,VALID,-0.101885,VALID,20.4637,VALID,353,VALID,1.05451,
2005-07-25, 00:53:00,VALID,917.244,VALID,0,VALID,98.3726,VALID,-0.101885,VALID,20.4535,VALID,4,VALID,0.869097,
2005-07-25, 00:54:00,VALID,917.243,VALID,0,VALID,98.4057,VALID,-0.101885,VALID,20.4632,VALID,354,VALID,0.703697,
2005-07-25, 00:55:00,VALID,917.231,VALID,0,VALID,98.4921,VALID,-0.101885,VALID,20.4734,VALID,354,VALID,0.707508,
2005-07-25, 00:56:00,VALID,917.226,VALID,0,VALID,98.4998,VALID,-0.101885,VALID,20.4699,VALID,360,VALID,0.909979,
2005-07-25, 00:57:00,VALID,917.2,VALID,0,VALID,98.4718,VALID,-0.101885,VALID,20.4436,VALID,3,VALID,0.89082,
2005-07-25, 00:58:00,VALID,917.187,VALID,0,VALID,98.3751,VALID,-0.0339617,VALID,20.4366,VALID,350,VALID,0.706101,
2005-07-25, 00:59:00,VALID,917.168,VALID,0,VALID,98.3599,VALID,0,VALID,20.4592,VALID,10,VALID,0.676067,
2005-07-25, 01:00:00,VALID,917.146,VALID,0,VALID,98.2162,VALID,0,VALID,20.442,VALID,1,VALID,0.962391,
2005-07-25, 01:01:00,VALID,917.134,VALID,0,VALID,98.0827,VALID,0.0169808,VALID,20.4584,VALID,9,VALID,0.965588,
2005-07-25, 01:02:00,VALID,917.124,VALID,0,VALID,98.0534,VALID,0.0169808,VALID,20.4485,VALID,322,VALID,0.483631,
2005-07-25, 01:03:00,VALID,917.124,VALID,0,VALID,98.1386,VALID,0,VALID,20.442,VALID,311,VALID,0.285247,
2005-07-25, 01:04:00,VALID,917.123,VALID,0,VALID,98.2823,VALID,0.0339617,VALID,20.4423,VALID,313,VALID,0.517223,
2005-07-25, 01:05:00,VALID,917.115,VALID,0,VALID,98.4464,VALID,0.0169808,VALID,20.4165,VALID,349,VALID,0.747569,
2005-07-25, 01:06:01,VALID,917.125,VALID,0,VALID,98.4909,VALID,0,VALID,20.3804,VALID,338,VALID,0.920058,
2005-07-25, 01:07:00,VALID,917.109,VALID,0,VALID,98.5697,VALID,0,VALID,20.3747,VALID,3,VALID,0.963086,
2005-07-25, 01:08:00,VALID,917.113,VALID,0,VALID,98.557,VALID,0.0339617,VALID,20.3519,VALID,349,VALID,1.009,
2005-07-25, 01:09:00,VALID,917.094,VALID,0,VALID,98.4171,VALID,0.0169808,VALID,20.3551,VALID,354,VALID,0.855035,
2005-07-25, 01:10:00,VALID,917.087,VALID,0,VALID,98.3599,VALID,0,VALID,20.3591,VALID,346,VALID,1.05806,
2005-07-25, 01:11:00,VALID,917.073,VALID,0,VALID,98.3573,VALID,0,VALID,20.3362,VALID,316,VALID,0.698509,
2005-07-25, 01:12:00,VALID,917.06,VALID,0,VALID,98.3853,VALID,0,VALID,20.33,VALID,308,VALID,0.299924,
2005-07-25, 01:13:00,VALID,917.032,VALID,0,VALID,98.4705,VALID,0,VALID,20.3303,VALID,308,VALID,0.0777699,
2005-07-25, 01:14:00,VALID,917.021,VALID,0,VALID,98.6028,VALID,0,VALID,20.333,VALID,309,VALID,0.135298,
2005-07-25, 01:15:00,VALID,917,VALID,0,VALID,98.4667,VALID,0,VALID,20.3128,VALID,348,VALID,0.660792,
2005-07-25, 01:16:00,VALID,916.99,VALID,0,VALID,98.3306,VALID,0.0509425,VALID,20.3196,VALID,8,VALID,0.600535,
2005-07-25, 01:17:01,VALID,916.979,VALID,0,VALID,98.3052,VALID,0,VALID,20.3491,VALID,349,VALID,0.630504,
2005-07-25, 01:18:00,VALID,916.964,VALID,0,VALID,98.1386,VALID,0,VALID,20.3263,VALID,337,VALID,0.93457,
2005-07-25, 01:19:01,VALID,916.949,VALID,0,VALID,98.0509,VALID,0,VALID,20.3367,VALID,342,VALID,0.527876,
2005-07-25, 01:20:01,VALID,916.957,VALID,0,VALID,98.1081,VALID,0,VALID,20.3429,VALID,344,VALID,0.658975,
2005-07-25, 01:21:01,VALID,916.948,VALID,0,VALID,98.1119,VALID,0.0169808,VALID,20.3206,VALID,330,VALID,0.901563,
2005-07-25, 01:22:00,VALID,916.931,VALID,0,VALID,98.1628,VALID,0,VALID,20.3101,VALID,346,VALID,0.645064,
2005-07-25, 01:23:01,VALID,916.93,VALID,0,VALID,98.2976,VALID,0,VALID,20.2907,VALID,15,VALID,0.70694,
2005-07-25, 01:24:00,VALID,916.927,VALID,0,VALID,98.4095,VALID,0,VALID,20.2843,VALID,353,VALID,0.782885,
2005-07-25, 01:25:00,VALID,916.937,VALID,0,VALID,98.515,VALID,0,VALID,20.2816,VALID,11,VALID,0.700284,
2005-07-25, 01:26:00,VALID,916.945,VALID,0,VALID,98.4629,VALID,0,VALID,20.2681,VALID,1,VALID,0.892401,
2005-07-25, 01:27:00,VALID,916.959,VALID,0,VALID,98.4883,VALID,0,VALID,20.2557,VALID,356,VALID,0.807413,
2005-07-25, 01:28:00,VALID,916.97,VALID,0,VALID,98.384,VALID,0,VALID,20.2619,VALID,342,VALID,1.03107,
2005-07-25, 01:29:00,VALID,916.984,VALID,0,VALID,98.3573,VALID,0.0169808,VALID,20.255,VALID,358,VALID,0.604581,
2005-07-25, 01:30:01,VALID,916.982,VALID,0,VALID,98.4018,VALID,0.0169808,VALID,20.2714,VALID,357,VALID,0.158398,
2005-07-25, 01:31:00,VALID,916.973,VALID,0,VALID,98.379,VALID,0.0169808,VALID,20.2878,VALID,357,VALID,0.0792151,
2005-07-25, 01:32:01,VALID,916.966,VALID,0,VALID,98.4362,VALID,0.0169808,VALID,20.2811,VALID,357,VALID,0.155297,
2005-07-25, 01:33:00,VALID,916.956,VALID,0,VALID,98.543,VALID,0.0339617,VALID,20.2652,VALID,357,VALID,0.0585938,
2005-07-25, 01:34:01,VALID,916.94,VALID,0,VALID,98.735,VALID,0,VALID,20.2686,VALID,357,VALID,0,
2005-07-25, 01:35:00,VALID,916.934,VALID,0,VALID,98.8304,VALID,0.0169808,VALID,20.2686,VALID,357,VALID,0.00490552,
2005-07-25, 01:36:00,VALID,916.938,VALID,0,VALID,98.8049,VALID,0.0339617,VALID,20.2654,VALID,352,VALID,0.439276,
2005-07-25, 01:37:00,VALID,916.948,VALID,0,VALID,98.7821,VALID,0,VALID,20.2522,VALID,351,VALID,0.398828,
2005-07-25, 01:38:00,VALID,916.938,VALID,0,VALID,98.7681,VALID,0.0169808,VALID,20.249,VALID,9,VALID,0.454241,
2005-07-25, 01:39:01,VALID,916.946,VALID,0,VALID,98.7617,VALID,0,VALID,20.2458,VALID,10,VALID,0.16061,
2005-07-25, 01:40:01,VALID,916.95,VALID,0,VALID,98.7388,VALID,0,VALID,20.2259,VALID,9,VALID,0.356001,
2005-07-25, 01:41:00,VALID,916.938,VALID,0,VALID,98.5481,VALID,0,VALID,20.2294,VALID,348,VALID,0.816406,
2005-07-25, 01:42:01,VALID,916.949,VALID,0,VALID,98.3701,VALID,0.0339617,VALID,20.2495,VALID,7,VALID,0.722301,
2005-07-25, 01:43:00,VALID,916.949,VALID,0,VALID,98.4069,VALID,-0.0169808,VALID,20.2689,VALID,31,VALID,0.465554,
2005-07-25, 01:44:00,VALID,916.933,VALID,0,VALID,98.4654,VALID,-0.101885,VALID,20.2732,VALID,29,VALID,0.473656,
2005-07-25, 01:45:01,VALID,916.945,VALID,0,VALID,98.2938,VALID,-0.101885,VALID,20.2737,VALID,9,VALID,0.612995,
2005-07-25, 01:46:00,VALID,916.961,VALID,0,VALID,98.2874,VALID,-0.0679233,VALID,20.2595,VALID,7,VALID,0.439499,
2005-07-25, 01:47:00,VALID,916.966,VALID,0,VALID,98.2823,VALID,-0.0509425,VALID,20.2567,VALID,7,VALID,0.444767,
2005-07-25, 01:48:00,VALID,916.958,VALID,0,VALID,98.2747,VALID,-0.0509425,VALID,20.2664,VALID,4,VALID,0.504542,
2005-07-25, 01:49:01,VALID,916.967,VALID,0,VALID,98.2505,VALID,-0.101885,VALID,20.2632,VALID,354,VALID,0.398074,
2005-07-25, 01:50:00,VALID,916.971,VALID,0,VALID,98.1997,VALID,-0.0679233,VALID,20.2697,VALID,331,VALID,0.234003,
2005-07-25, 01:51:00,VALID,916.976,VALID,0,VALID,98.173,VALID,-0.101885,VALID,20.2826,VALID,327,VALID,0.631904,
2005-07-25, 01:52:01,VALID,916.967,VALID,0,VALID,98.192,VALID,-0.101885,VALID,20.3049,VALID,334,VALID,0.401811,
2005-07-25, 01:53:00,VALID,916.957,VALID,0,VALID,98.1106,VALID,-0.0679233,VALID,20.3248,VALID,330,VALID,0.400343,
2005-07-25, 01:54:00,VALID,916.922,VALID,0,VALID,98.1081,VALID,-0.0849042,VALID,20.3114,VALID,344,VALID,0.520894,
2005-07-25, 01:55:00,VALID,916.908,VALID,0,VALID,98.0407,VALID,-0.118866,VALID,20.3022,VALID,18,VALID,0.686458,
2005-07-25, 01:56:01,VALID,916.884,VALID,0,VALID,98.0115,VALID,-0.0849042,VALID,20.2953,VALID,17,VALID,0.566106,
2005-07-25, 01:57:00,VALID,916.853,VALID,0,VALID,97.883,VALID,-0.101885,VALID,20.289,VALID,352,VALID,0.404605,
2005-07-25, 01:58:00,VALID,916.846,VALID,0,VALID,97.9542,VALID,-0.0339617,VALID,20.3009,VALID,352,VALID,0.201308,
2005-07-25, 01:59:00,VALID,916.843,VALID,0,VALID,98.0191,VALID,0,VALID,20.3171,VALID,352,VALID,0.302689,
2005-07-25, 02:00:01,VALID,916.836,VALID,0,VALID,98.1691,VALID,0,VALID,20.3233,VALID,352,VALID,0.29707,
2005-07-25, 02:01:00,VALID,916.84,VALID,0,VALID,98.3739,VALID,0.0339617,VALID,20.3397,VALID,352,VALID,0.417791,
2005-07-25, 02:02:00,VALID,916.839,VALID,0,VALID,98.1857,VALID,0,VALID,20.3233,VALID,13,VALID,0.620206,
2005-07-25, 02:03:00,VALID,916.833,VALID,0,VALID,98.2289,VALID,0.0169808,VALID,20.3099,VALID,10,VALID,0.423399,
2005-07-25, 02:04:01,VALID,916.819,VALID,0,VALID,98.2429,VALID,0,VALID,20.3071,VALID,10,VALID,0.360465,
2005-07-25, 02:05:00,VALID,916.82,VALID,0,VALID,98.1437,VALID,0.0169808,VALID,20.3004,VALID,10,VALID,0.156428,
2005-07-25, 02:06:00,VALID,916.792,VALID,0,VALID,98.0242,VALID,0.0169808,VALID,20.2614,VALID,2,VALID,0.528161,
2005-07-25, 02:07:01,VALID,916.775,VALID,0,VALID,98.0967,VALID,0.0339617,VALID,20.2488,VALID,353,VALID,0.302455,
2005-07-25, 02:08:01,VALID,916.744,VALID,0,VALID,98.1946,VALID,0.0679233,VALID,20.2259,VALID,353,VALID,0.331032,
2005-07-25, 02:09:01,VALID,916.726,VALID,0,VALID,98.2162,VALID,0.0169808,VALID,20.2065,VALID,347,VALID,0.341992,
2005-07-25, 02:10:00,VALID,916.711,VALID,0,VALID,98.3141,VALID,0.0509425,VALID,20.1966,VALID,263,VALID,0.445898,
2005-07-25, 02:11:00,VALID,916.677,VALID,0,VALID,98.501,VALID,0.0509425,VALID,20.2006,VALID,256,VALID,0.388021,
2005-07-25, 02:12:00,VALID,916.673,VALID,0,VALID,98.3726,VALID,0.0339617,VALID,20.2033,VALID,255,VALID,0.347284,
2005-07-25, 02:13:00,VALID,916.681,VALID,0,VALID,98.3548,VALID,0.0169808,VALID,20.2097,VALID,255,VALID,0.161014,
2005-07-25, 02:14:00,VALID,916.683,VALID,0,VALID,98.2976,VALID,0.0339617,VALID,20.2296,VALID,255,VALID,0.212271,
2005-07-25, 02:15:01,VALID,916.695,VALID,0,VALID,98.3256,VALID,0.0169808,VALID,20.2289,VALID,255,VALID,0.0572917,
2005-07-25, 02:16:00,VALID,916.712,VALID,0,VALID,98.3103,VALID,0.0509425,VALID,20.2388,VALID,255,VALID,0.0102983,
2005-07-25, 02:17:00,VALID,916.725,VALID,0,VALID,98.4565,VALID,0.0339617,VALID,20.2455,VALID,255,VALID,0.149148,
2005-07-25, 02:18:00,VALID,916.732,VALID,0,VALID,98.2849,VALID,0.0509425,VALID,20.2386,VALID,256,VALID,0.321911,
2005-07-25, 02:19:01,VALID,916.737,VALID,0,VALID,98.4171,VALID,0,VALID,20.2584,VALID,259,VALID,0.337984,
2005-07-25, 02:20:01,VALID,916.741,VALID,0,VALID,98.384,VALID,0.0169808,VALID,20.2517,VALID,325,VALID,0.493164,
2005-07-25, 02:21:00,VALID,916.743,VALID,0,VALID,98.4235,VALID,0.0339617,VALID,20.2619,VALID,332,VALID,0.338889,
2005-07-25, 02:22:00,VALID,916.731,VALID,0,VALID,98.6167,VALID,0.0509425,VALID,20.2552,VALID,338,VALID,0.465021,
2005-07-25, 02:23:01,VALID,916.706,VALID,0,VALID,98.7655,VALID,0.0339617,VALID,20.2652,VALID,360,VALID,0.708939,
2005-07-25, 02:24:00,VALID,916.693,VALID,0,VALID,98.6791,VALID,0.0339617,VALID,20.2485,VALID,5,VALID,0.926339,
2005-07-25, 02:25:01,VALID,916.675,VALID,0,VALID,98.5252,VALID,0,VALID,20.246,VALID,17,VALID,1.20258,
2005-07-25, 02:26:00,VALID,916.656,VALID,0,VALID,98.365,VALID,0,VALID,20.2426,VALID,7,VALID,1.06686,
2005-07-25, 02:27:01,VALID,916.64,VALID,0,VALID,98.2874,VALID,0,VALID,20.2393,VALID,15,VALID,1.23028,
2005-07-25, 02:28:00,VALID,916.63,VALID,0,VALID,98.2899,VALID,0,VALID,20.2229,VALID,15,VALID,1.30625,
2005-07-25, 02:29:00,VALID,916.625,VALID,0,VALID,98.4222,VALID,0.0339617,VALID,20.2202,VALID,15,VALID,1.12329,
2005-07-25, 02:30:00,VALID,916.622,VALID,0,VALID,98.4527,VALID,0.0169808,VALID,20.2038,VALID,13,VALID,1.11059,
2005-07-25, 02:31:01,VALID,916.602,VALID,0,VALID,98.557,VALID,0,VALID,20.1879,VALID,3,VALID,0.972317,
2005-07-25, 02:32:01,VALID,916.581,VALID,0,VALID,98.6218,VALID,0.0169808,VALID,20.1715,VALID,14,VALID,0.888086,
2005-07-25, 02:33:00,VALID,916.551,VALID,0,VALID,98.7388,VALID,0.0339617,VALID,20.1484,VALID,15,VALID,0.679688,
2005-07-25, 02:34:01,VALID,916.53,VALID,0,VALID,98.7579,VALID,0.0169808,VALID,20.1424,VALID,353,VALID,0.628162,
2005-07-25, 02:35:01,VALID,916.508,VALID,0,VALID,98.7668,VALID,0.0339617,VALID,20.1201,VALID,353,VALID,0.940104,
2005-07-25, 02:36:00,VALID,916.48,VALID,0,VALID,98.7401,VALID,0,VALID,20.1171,VALID,352,VALID,0.770833,
2005-07-25, 02:37:01,VALID,916.462,VALID,0,VALID,98.7757,VALID,0.0169808,VALID,20.1106,VALID,353,VALID,0.713423,
2005-07-25, 02:38:01,VALID,916.464,VALID,0,VALID,98.824,VALID,0.0339617,VALID,20.094,VALID,354,VALID,0.759487,
2005-07-25, 02:39:00,VALID,916.461,VALID,0,VALID,98.7604,VALID,0.0169808,VALID,20.0945,VALID,335,VALID,0.77691,
2005-07-25, 02:40:01,VALID,916.452,VALID,0,VALID,98.7541,VALID,0.0169808,VALID,20.0942,VALID,347,VALID,0.569949,
2005-07-25, 02:41:01,VALID,916.456,VALID,0,VALID,98.8418,VALID,0.0169808,VALID,20.0977,VALID,353,VALID,0.415777,
2005-07-25, 02:42:00,VALID,916.441,VALID,0,VALID,98.8889,VALID,0,VALID,20.0977,VALID,353,VALID,0.121838,
2005-07-25, 02:43:01,VALID,916.428,VALID,0,VALID,98.9881,VALID,0,VALID,20.0975,VALID,353,VALID,0.150174,
2005-07-25, 02:44:01,VALID,916.407,VALID,0,VALID,99.1165,VALID,0.0169808,VALID,20.094,VALID,353,VALID,0.234197,
2005-07-25, 02:45:00,VALID,916.387,VALID,0,VALID,99.1801,VALID,0,VALID,20.0913,VALID,353,VALID,0.510719,
2005-07-25, 02:46:00,VALID,916.364,VALID,0,VALID,99.1724,VALID,0.0509425,VALID,20.0647,VALID,353,VALID,0.630682,
2005-07-25, 02:47:01,VALID,916.349,VALID,0,VALID,99.236,VALID,0.0169808,VALID,20.0649,VALID,353,VALID,0.52077,
2005-07-25, 02:48:01,VALID,916.331,VALID,0,VALID,99.1585,VALID,0.0169808,VALID,20.0587,VALID,353,VALID,0.719113,
2005-07-25, 02:49:01,VALID,916.332,VALID,0,VALID,99.1305,VALID,0.0509425,VALID,20.0485,VALID,353,VALID,0.671689,
2005-07-25, 02:50:01,VALID,916.328,VALID,0,VALID,99.0516,VALID,0.0339617,VALID,20.0654,VALID,353,VALID,0.663021,
2005-07-25, 02:51:01,VALID,916.331,VALID,0,VALID,99.0911,VALID,0.0339617,VALID,20.0587,VALID,2,VALID,0.867697,
2005-07-25, 02:52:01,VALID,916.354,VALID,0,VALID,99.0046,VALID,0.0509425,VALID,20.0515,VALID,3,VALID,0.833984,
2005-07-25, 02:53:01,VALID,916.369,VALID,0,VALID,99.0033,VALID,0.0169808,VALID,20.0652,VALID,6,VALID,0.845796,
2005-07-25, 02:54:00,VALID,916.373,VALID,0,VALID,98.997,VALID,0,VALID,20.0517,VALID,355,VALID,0.895008,
2005-07-25, 02:55:01,VALID,916.378,VALID,0,VALID,99.0046,VALID,0.0169808,VALID,20.049,VALID,360,VALID,0.799665,
2005-07-25, 02:56:00,VALID,916.372,VALID,0,VALID,99.1038,VALID,0,VALID,20.0458,VALID,351,VALID,0.797743,
2005-07-25, 02:57:00,VALID,916.376,VALID,0,VALID,99.2119,VALID,0.0339617,VALID,20.0423,VALID,6,VALID,1.01563,
2005-07-25, 02:58:01,VALID,916.363,VALID,0,VALID,99.2576,VALID,-0.0169808,VALID,20.0299,VALID,15,VALID,0.663154,
2005-07-25, 02:59:01,VALID,916.351,VALID,0,VALID,99.3708,VALID,-0.0849042,VALID,20.0212,VALID,1,VALID,0.567909,
2005-07-25, 03:00:01,VALID,916.342,VALID,0,VALID,99.4725,VALID,-0.101885,VALID,20.0083,VALID,18,VALID,0.744048,
2005-07-25, 03:01:01,VALID,916.318,VALID,0,VALID,99.4675,VALID,-0.0509425,VALID,20.0148,VALID,16,VALID,1.03761,
2005-07-25, 03:02:01,VALID,916.295,VALID,0,VALID,99.3479,VALID,-0.101885,VALID,19.9954,VALID,14,VALID,1.23615,
2005-07-25, 03:03:01,VALID,916.286,VALID,0,VALID,99.3009,VALID,-0.0679233,VALID,19.9921,VALID,4,VALID,0.732701,
2005-07-25, 03:04:01,VALID,916.266,VALID,0,VALID,99.3174,VALID,-0.0509425,VALID,19.9857,VALID,5,VALID,0.713224,
2005-07-25, 03:05:01,VALID,916.25,VALID,0,VALID,99.311,VALID,-0.0679233,VALID,19.9864,VALID,10,VALID,0.533537,
2005-07-25, 03:06:01,VALID,916.227,VALID,0,VALID,99.4179,VALID,-0.101885,VALID,19.979,VALID,27,VALID,0.658156,
2005-07-25, 03:07:01,VALID,916.212,VALID,0,VALID,99.4967,VALID,-0.101885,VALID,19.9825,VALID,19,VALID,0.848586,
2005-07-25, 03:08:01,VALID,916.199,VALID,0,VALID,99.498,VALID,-0.101885,VALID,19.9795,VALID,11,VALID,0.687855,
2005-07-25, 03:09:01,VALID,916.187,VALID,0,VALID,99.4776,VALID,-0.0509425,VALID,19.9767,VALID,12,VALID,0.718378,
2005-07-25, 03:10:01,VALID,916.177,VALID,0,VALID,99.4293,VALID,-0.0849042,VALID,19.9633,VALID,9,VALID,0.607469,
2005-07-25, 03:11:01,VALID,916.167,VALID,0,VALID,99.4191,VALID,-0.0849042,VALID,19.9606,VALID,5,VALID,0.751603,
2005-07-25, 03:12:01,VALID,916.148,VALID,0,VALID,99.3505,VALID,-0.101885,VALID,19.9477,VALID,13,VALID,1.13867,
2005-07-25, 03:13:01,VALID,916.154,VALID,0,VALID,99.306,VALID,-0.0169808,VALID,19.9434,VALID,10,VALID,1.29453,
2005-07-25, 03:14:01,VALID,916.152,VALID,0,VALID,99.3009,VALID,0,VALID,19.9397,VALID,7,VALID,1.22135,
2005-07-25, 03:15:01,VALID,916.159,VALID,0,VALID,99.2856,VALID,0.0169808,VALID,19.9357,VALID,1,VALID,0.773065,
2005-07-25, 03:16:01,VALID,916.174,VALID,0,VALID,99.3149,VALID,0.0169808,VALID,19.9464,VALID,2,VALID,1.01726,
2005-07-25, 03:17:01,VALID,916.17,VALID,0,VALID,99.4039,VALID,0.0169808,VALID,19.9397,VALID,356,VALID,0.774709,
2005-07-25, 03:18:01,VALID,916.193,VALID,0,VALID,99.5005,VALID,0.0339617,VALID,19.9395,VALID,3,VALID,0.834077,
2005-07-25, 03:19:01,VALID,916.2,VALID,0,VALID,99.5031,VALID,0,VALID,19.9464,VALID,346,VALID,0.98819,
2005-07-25, 03:20:01,VALID,916.217,VALID,0,VALID,99.4929,VALID,0,VALID,19.9427,VALID,323,VALID,0.867001,
2005-07-25, 03:21:01,VALID,916.238,VALID,0,VALID,99.4789,VALID,0,VALID,19.9591,VALID,307,VALID,0.491642,
2005-07-25, 03:22:01,VALID,916.262,VALID,0,VALID,99.5247,VALID,0.0339617,VALID,19.9849,VALID,305,VALID,0.525534,
2005-07-25, 03:23:01,VALID,916.277,VALID,0,VALID,99.6137,VALID,0,VALID,19.9653,VALID,304,VALID,0.285866,
2005-07-25, 03:24:01,VALID,916.275,VALID,0,VALID,99.6963,VALID,0,VALID,19.9752,VALID,304,VALID,0.0846946,
2005-07-25, 03:25:00,VALID,916.27,VALID,0,VALID,99.8006,VALID,0,VALID,19.9914,VALID,304,VALID,0.181734,
2005-07-25, 03:26:00,VALID,916.254,VALID,0,VALID,99.8985,VALID,0,VALID,19.9914,VALID,304,VALID,0.524962,
2005-07-25, 03:27:00,VALID,916.222,VALID,0,VALID,99.9891,VALID,0.0169808,VALID,19.9752,VALID,304,VALID,0.458394,
2005-07-25, 03:28:00,VALID,916.214,VALID,0,VALID,100,VALID,0.0169808,VALID,19.9489,VALID,304,VALID,0.212028,
2005-07-25, 03:29:00,VALID,916.211,VALID,0,VALID,100,VALID,0.0339617,VALID,19.939,VALID,312,VALID,0.425037,
2005-07-25, 03:30:00,VALID,916.193,VALID,0,VALID,100,VALID,0.0169808,VALID,19.9265,VALID,337,VALID,0.677973,
2005-07-25, 03:31:00,VALID,916.187,VALID,0,VALID,100,VALID,0.0169808,VALID,19.9494,VALID,341,VALID,0.720052,
2005-07-25, 03:32:00,VALID,916.196,VALID,0,VALID,99.9791,VALID,0,VALID,19.9747,VALID,349,VALID,0.916016,
2005-07-25, 03:33:00,VALID,916.207,VALID,0,VALID,99.7587,VALID,0.0339617,VALID,20.0065,VALID,356,VALID,1.00273,
2005-07-25, 03:34:00,VALID,916.223,VALID,0,VALID,99.5031,VALID,0.0169808,VALID,20.045,VALID,347,VALID,0.581759,
2005-07-25, 03:35:00,VALID,916.226,VALID,0,VALID,99.292,VALID,0.0679233,VALID,20.0783,VALID,302,VALID,0.358648,